Regional Weather Roundup
Issued by NWS

Home | Current Version | Previous Version | Graphics & Text | Print | Product List | Glossary On
Versions: 1 2 3 4 5 6 7 8 9 10 11 12 13 14 15 16 17 18 19 20 21 22 23 24 25 26 27 28 29 30 31 32 33 34 35 36 37 38 39 40 41 42 43 44 45 46 47 48 49 50
000
ASUS45 KSLC 010410
RWRUT

UTAH REGIONAL WEATHER ROUNDUP
NATIONAL WEATHER SERVICE SALT LAKE CITY UT
1000 PM MDT TUE MAY 31 2016

UTZ001>011-023>025-010500-

NORTHERN UTAH

CITY           SKY/WX    TMP DP  RH WIND       PRES   REMARKS
BRIGHAM CITY     N/A     66  40  38 N5        30.06R
HILL AFB       CLEAR     65  40  39 NE2       30.08R
LOGAN          CLEAR     52  44  74 NW8       30.07R
OGDEN          CLEAR     64  40  41 S3        30.06R
PROVO AIRPORT  CLEAR     66  37  34 NW14      30.05R
SALT LAKE CITY CLEAR     68  36  30 E5        30.05R
VERNAL         PTCLDY    63  33  32 NW7       30.04R
WENDOVER       CLEAR     72  30  21 N13       30.06R
HEBER CITY     CLEAR     57  23  26 E3        30.10R
WEST JORDAN    CLEAR     59  28  31 SW7       30.08R

$$

UTZ012>022-026-027-010500-

SOUTHERN/CENTRAL UTAH

CITY           SKY/WX    TMP DP  RH WIND       PRES   REMARKS
BLANDING       CLEAR     62  25  24 N10       30.08R
BRYCE CANYON   CLEAR     53  20  27 NW8       30.17R
CEDAR CITY     CLEAR     61  23  23 NE10      30.06R
DELTA          CLEAR     63  27  25 N7        30.06R
HANKSVILLE     CLEAR     73  23  15 NW6       29.95R
MILFORD        CLEAR     60  18  19 N9        30.04R
MOAB/CYNLANDS  CLEAR     77  25  14 NE14      29.90R
PRICE          CLEAR     64  18  17 N10       30.06R
ST GEORGE      CLEAR     84  27  12 NE22G29   29.85R

$$

REGIONAL REPORTS     COLORADO/ARIZONA

CITY           SKY/WX    TMP DP  RH WIND       PRES   REMARKS
CRAIG, CO      CLEAR     49  42  77 CALM      30.11R
GRAND JUNCTION CLEAR     71  29  21 NE13      29.96R
RIFLE          CLEAR     58  32  37 SW3       30.04R
MONTROSE       CLEAR     63  34  33 CALM      30.04R
CORTEZ         PTCLDY    62  33  33 E8        30.02R
PAGE, AZ       CLEAR     79  19  10 S3        29.87R
GRAND CANYON   CLEAR     52  27  38 CALM      30.08R
KINGMAN        CLEAR     76  24  14 SW5       29.87R
FLAGSTAFF      PTCLDY    57  27  31 CALM      30.12R

$$

REGIONAL REPORTS    NEVADA/IDAHO/WYOMING

CITY           SKY/WX    TMP DP  RH WIND       PRES   REMARKS
LAS VEGAS, NV  PTCLDY    93  31  11 CALM      29.72R
ELY            CLEAR     58  29  33 NW8       30.13R
ELKO           CLEAR     65  32  29 VRB5      30.09R
POCATELLO, ID  CLOUDY    58  38  47 SE3       30.09R
BURLEY         CLEAR     61  39  44 CALM      30.05R
EVANSTON, WY   CLOUDY    53  35  50 N6        30.20R
ROCK SPRINGS   CLOUDY    56  33  42 NE15G22   30.15R
KEMMERER         N/A     50  32  50 NW8       30.20R

$$



USA.gov is the U.S. government's official web portal to all federal, state and local government web resources and services.